Year,Month,Day,Hour,Minute,Value (Times are PST for temperature in C)
2015,10,20,08,13,9.90
2015,10,20,08,14,9.90
2015,10,20,08,15,10.00
2015,10,20,08,16,10.00
2015,10,20,08,17,10.00
2015,10,20,08,18,10.00
2015,10,20,08,19,10.00
2015,10,20,08,20,10.00
2015,10,20,08,21,10.00
2015,10,20,08,22,10.10
2015,10,20,08,23,10.10
2015,10,20,08,24,10.10
2015,10,20,08,25,10.10
2015,10,20,08,26,10.10
2015,10,20,08,27,10.10
2015,10,20,08,28,10.10
2015,10,20,08,29,10.10
2015,10,20,08,30,10.10
2015,10,20,08,31,10.10
2015,10,20,08,32,10.10
2015,10,20,08,33,10.10
2015,10,20,08,34,10.20
2015,10,20,08,35,10.20
2015,10,20,08,36,10.20
2015,10,20,08,37,10.20
2015,10,20,08,38,10.20
2015,10,20,08,39,10.20
2015,10,20,08,40,10.20
2015,10,20,08,41,10.20
2015,10,20,08,42,10.20
2015,10,20,08,43,10.20
2015,10,20,08,44,10.20
2015,10,20,08,45,10.20
2015,10,20,08,46,10.20
2015,10,20,08,47,10.20
2015,10,20,08,48,10.20
2015,10,20,08,49,10.30
2015,10,20,08,50,10.30
2015,10,20,08,51,10.30
2015,10,20,08,52,10.30
2015,10,20,08,53,10.30
2015,10,20,08,54,10.30
2015,10,20,08,55,10.30
2015,10,20,08,56,10.40
2015,10,20,08,57,10.40
2015,10,20,08,58,10.40
2015,10,20,08,59,10.40
2015,10,20,09,00,10.50
2015,10,20,09,01,10.50
2015,10,20,09,02,10.50
2015,10,20,09,03,10.60
2015,10,20,09,04,10.60
2015,10,20,09,05,10.60
2015,10,20,09,06,10.60
2015,10,20,09,07,10.60
2015,10,20,09,08,10.60
2015,10,20,09,09,10.60
2015,10,20,09,10,10.60
2015,10,20,09,11,10.60
2015,10,20,09,12,10.60
2015,10,20,09,13,10.60
2015,10,20,09,14,10.60
2015,10,20,09,15,10.60
2015,10,20,09,16,10.60
2015,10,20,09,17,10.60
2015,10,20,09,18,10.60
2015,10,20,09,19,10.60
2015,10,20,09,20,10.60
2015,10,20,09,21,10.60
2015,10,20,09,22,10.60
2015,10,20,09,23,10.60
2015,10,20,09,24,10.60
2015,10,20,09,25,10.60
2015,10,20,09,26,10.60
2015,10,20,09,27,10.60
2015,10,20,09,28,10.60
2015,10,20,09,29,10.60
2015,10,20,09,30,10.60
2015,10,20,09,31,10.60
2015,10,20,09,32,10.60
2015,10,20,09,33,10.60
2015,10,20,09,34,10.60
2015,10,20,09,35,10.60
2015,10,20,09,36,10.60
2015,10,20,09,37,10.60
2015,10,20,09,38,10.60
2015,10,20,09,39,10.60
2015,10,20,09,40,10.60
2015,10,20,09,41,10.60
2015,10,20,09,42,10.60
2015,10,20,09,43,10.70
2015,10,20,09,44,10.70
2015,10,20,09,45,10.70
2015,10,20,09,46,10.70
2015,10,20,09,47,10.70
2015,10,20,09,48,10.60
2015,10,20,09,49,10.60
2015,10,20,09,50,10.60
2015,10,20,09,51,10.60
2015,10,20,09,52,10.60
2015,10,20,09,53,10.60
2015,10,20,09,54,10.60
2015,10,20,09,55,10.60
2015,10,20,09,56,10.60
2015,10,20,09,57,10.50
2015,10,20,09,58,10.60
2015,10,20,09,59,10.50
2015,10,20,10,00,10.50
2015,10,20,10,01,10.60
2015,10,20,10,02,10.60
2015,10,20,10,03,10.60
2015,10,20,10,04,10.60
2015,10,20,10,05,10.60
2015,10,20,10,06,10.60
2015,10,20,10,07,10.60
2015,10,20,10,08,10.60
2015,10,20,10,09,10.60
2015,10,20,10,10,10.60
2015,10,20,10,11,10.60
2015,10,20,10,12,10.60
2015,10,20,10,13,10.70
2015,10,20,10,14,10.70
2015,10,20,10,15,10.70
2015,10,20,10,16,10.70
2015,10,20,10,17,10.70
2015,10,20,10,18,10.70
2015,10,20,10,19,10.70
2015,10,20,10,20,10.70
2015,10,20,10,21,10.70
2015,10,20,10,22,10.70
2015,10,20,10,23,10.70
2015,10,20,10,24,10.70
2015,10,20,10,25,10.70
2015,10,20,10,26,10.70
2015,10,20,10,27,10.70
2015,10,20,10,28,10.70
2015,10,20,10,29,10.80
2015,10,20,10,30,10.80
2015,10,20,10,31,10.80
2015,10,20,10,32,10.90
2015,10,20,10,33,10.90
2015,10,20,10,34,10.90
2015,10,20,10,35,10.90
2015,10,20,10,36,10.90
2015,10,20,10,37,11.00
2015,10,20,10,38,11.00
2015,10,20,10,39,11.00
2015,10,20,10,40,11.00
2015,10,20,10,41,11.00
2015,10,20,10,42,11.00
2015,10,20,10,43,11.10
2015,10,20,10,44,11.10
2015,10,20,10,45,11.10
2015,10,20,10,46,11.10
2015,10,20,10,47,11.10
2015,10,20,10,48,11.10
2015,10,20,10,49,11.10
2015,10,20,10,50,11.10
2015,10,20,10,51,11.10
2015,10,20,10,52,11.10
2015,10,20,10,53,11.20
2015,10,20,10,54,11.20
2015,10,20,10,55,11.20
2015,10,20,10,56,11.20
2015,10,20,10,57,11.20
2015,10,20,10,58,11.30
2015,10,20,10,59,11.30
2015,10,20,11,00,11.40
2015,10,20,11,01,11.40
2015,10,20,11,02,11.40
2015,10,20,11,03,11.50
2015,10,20,11,04,11.50
2015,10,20,11,05,11.50
2015,10,20,11,06,11.50
2015,10,20,11,07,11.60
2015,10,20,11,08,11.60
2015,10,20,11,09,11.60
2015,10,20,11,10,11.60
2015,10,20,11,11,11.60
2015,10,20,11,12,11.60
2015,10,20,11,13,11.60
2015,10,20,11,14,11.60
2015,10,20,11,15,11.60
2015,10,20,11,16,11.60
2015,10,20,11,17,11.60
2015,10,20,11,18,11.60
2015,10,20,11,19,11.60
2015,10,20,11,20,11.60
2015,10,20,11,21,11.70
2015,10,20,11,22,11.70
2015,10,20,11,23,11.70
2015,10,20,11,24,11.70
2015,10,20,11,25,11.70
2015,10,20,11,26,11.70
2015,10,20,11,27,11.70
2015,10,20,11,28,11.70
2015,10,20,11,29,11.70
2015,10,20,11,30,11.70
2015,10,20,11,31,11.60
2015,10,20,11,32,11.70
2015,10,20,11,33,11.70
2015,10,20,11,34,11.70
2015,10,20,11,35,11.70
2015,10,20,11,36,11.70
2015,10,20,11,37,11.70
2015,10,20,11,38,11.70
2015,10,20,11,39,11.80
2015,10,20,11,40,11.80
2015,10,20,11,41,11.80
2015,10,20,11,42,11.80
2015,10,20,11,43,11.90
2015,10,20,11,44,11.90
2015,10,20,11,45,12.00
2015,10,20,11,46,12.00
2015,10,20,11,47,12.10
2015,10,20,11,48,12.10
2015,10,20,11,49,12.10
2015,10,20,11,50,12.10
2015,10,20,11,51,12.10
2015,10,20,11,52,12.10
2015,10,20,11,53,12.10
2015,10,20,11,54,12.10
2015,10,20,11,55,12.10
2015,10,20,11,56,12.20
2015,10,20,11,57,12.20
2015,10,20,11,58,12.20
2015,10,20,11,59,12.30
2015,10,20,12,00,12.30
2015,10,20,12,01,12.30
2015,10,20,12,02,12.30
2015,10,20,12,03,12.40
2015,10,20,12,04,12.40
2015,10,20,12,05,12.40
2015,10,20,12,06,12.40
2015,10,20,12,07,12.30
2015,10,20,12,08,12.30
2015,10,20,12,09,12.30
2015,10,20,12,10,12.40
2015,10,20,12,11,12.40
2015,10,20,12,12,12.50
2015,10,20,12,13,12.60
2015,10,20,12,14,12.60
2015,10,20,12,15,12.70
2015,10,20,12,16,12.70
2015,10,20,12,17,12.70
2015,10,20,12,18,12.60
2015,10,20,12,19,12.60
2015,10,20,12,20,12.50
2015,10,20,12,21,12.50
2015,10,20,12,22,12.50
2015,10,20,12,23,12.50
2015,10,20,12,24,12.50
2015,10,20,12,25,12.60
2015,10,20,12,26,12.60
2015,10,20,12,27,12.60
2015,10,20,12,28,12.70
2015,10,20,12,29,12.70
2015,10,20,12,30,12.80
2015,10,20,12,31,12.80
2015,10,20,12,32,12.80
2015,10,20,12,33,12.70
2015,10,20,12,34,12.70
2015,10,20,12,35,12.60
2015,10,20,12,36,12.60
2015,10,20,12,37,12.60
2015,10,20,12,38,12.60
2015,10,20,12,39,12.60
2015,10,20,12,40,12.60
2015,10,20,12,41,12.60
2015,10,20,12,42,12.60
2015,10,20,12,43,12.60
2015,10,20,12,44,12.60
2015,10,20,12,45,12.60
2015,10,20,12,46,12.60
2015,10,20,12,47,12.60
2015,10,20,12,48,12.60
2015,10,20,12,49,12.60
2015,10,20,12,50,12.60
2015,10,20,12,51,12.60
2015,10,20,12,52,12.60
2015,10,20,12,53,12.60
2015,10,20,12,54,12.60
2015,10,20,12,55,12.60
2015,10,20,12,56,12.60
2015,10,20,12,57,12.60
2015,10,20,12,58,12.50
2015,10,20,12,59,12.50
2015,10,20,13,00,12.50
2015,10,20,13,01,12.50
2015,10,20,13,02,12.60
2015,10,20,13,03,12.60
2015,10,20,13,04,12.60
2015,10,20,13,05,12.60
2015,10,20,13,06,12.60
2015,10,20,13,07,12.60
2015,10,20,13,08,12.60
2015,10,20,13,09,12.60
2015,10,20,13,10,12.60
2015,10,20,13,11,12.60
2015,10,20,13,12,12.60
2015,10,20,13,13,12.70
2015,10,20,13,14,12.70
2015,10,20,13,15,12.80
2015,10,20,13,16,12.80
2015,10,20,13,17,12.80
2015,10,20,13,18,12.80
2015,10,20,13,19,12.90
2015,10,20,13,20,12.90
2015,10,20,13,21,13.00
2015,10,20,13,22,13.00
2015,10,20,13,23,13.10
2015,10,20,13,24,13.20
2015,10,20,13,25,13.20
2015,10,20,13,26,13.30
2015,10,20,13,27,13.30
2015,10,20,13,28,13.30
2015,10,20,13,29,13.30
2015,10,20,13,30,13.30
2015,10,20,13,31,13.30
2015,10,20,13,32,13.30
2015,10,20,13,33,13.40
2015,10,20,13,34,13.40
2015,10,20,13,35,13.40
2015,10,20,13,36,13.40
2015,10,20,13,37,13.40
2015,10,20,13,38,13.40
2015,10,20,13,39,13.50
2015,10,20,13,40,13.50
2015,10,20,13,41,13.60
2015,10,20,13,42,13.60
2015,10,20,13,43,13.60
2015,10,20,13,44,13.60
2015,10,20,13,45,13.70
2015,10,20,13,46,13.70
2015,10,20,13,47,13.80
2015,10,20,13,48,13.80
2015,10,20,13,49,13.80
2015,10,20,13,50,13.90
2015,10,20,13,51,13.90
2015,10,20,13,52,14.00
2015,10,20,13,53,14.00
2015,10,20,13,54,14.00
2015,10,20,13,55,14.00
2015,10,20,13,56,14.00
2015,10,20,13,57,14.00
2015,10,20,13,58,14.00
2015,10,20,13,59,14.00
2015,10,20,14,00,14.00
2015,10,20,14,01,14.00
2015,10,20,14,02,14.00
2015,10,20,14,03,14.10
2015,10,20,14,04,14.10
2015,10,20,14,05,14.10
2015,10,20,14,06,14.10
2015,10,20,14,07,14.10
2015,10,20,14,08,14.10
2015,10,20,14,09,14.10
2015,10,20,14,10,14.10
2015,10,20,14,11,14.10
2015,10,20,14,12,14.20
2015,10,20,14,13,14.20
2015,10,20,14,14,14.20
2015,10,20,14,15,14.20
2015,10,20,14,16,14.20
2015,10,20,14,17,14.20
2015,10,20,14,18,14.20
2015,10,20,14,19,14.20
2015,10,20,14,20,14.20
2015,10,20,14,21,14.20
2015,10,20,14,22,14.20
2015,10,20,14,23,14.20
2015,10,20,14,24,14.20
2015,10,20,14,25,14.20
2015,10,20,14,26,14.30
2015,10,20,14,27,14.30
2015,10,20,14,28,14.30
2015,10,20,14,29,14.40
2015,10,20,14,30,14.40
2015,10,20,14,31,14.40
2015,10,20,14,32,14.40
2015,10,20,14,33,14.30
2015,10,20,14,34,14.30
2015,10,20,14,35,14.30
2015,10,20,14,36,14.30
2015,10,20,14,37,14.30
2015,10,20,14,38,14.30
2015,10,20,14,39,14.30
2015,10,20,14,40,14.30
2015,10,20,14,41,14.30
2015,10,20,14,42,14.40
2015,10,20,14,43,14.40
2015,10,20,14,44,14.50
2015,10,20,14,45,14.50
2015,10,20,14,46,14.50
2015,10,20,14,47,14.60
2015,10,20,14,48,14.60
2015,10,20,14,49,14.70
2015,10,20,14,50,14.70
2015,10,20,14,51,14.70
2015,10,20,14,52,14.70
2015,10,20,14,53,14.70
2015,10,20,14,54,14.70
2015,10,20,14,55,14.70
2015,10,20,14,56,14.70
2015,10,20,14,57,14.60
2015,10,20,14,58,14.60
2015,10,20,14,59,14.60
2015,10,20,15,00,14.60
2015,10,20,15,01,14.60
2015,10,20,15,02,14.70
2015,10,20,15,03,14.70
2015,10,20,15,04,14.70
2015,10,20,15,05,14.70
2015,10,20,15,06,14.80
2015,10,20,15,07,14.80
2015,10,20,15,08,14.80
2015,10,20,15,09,14.90
2015,10,20,15,10,15.00
2015,10,20,15,11,15.00
2015,10,20,15,12,15.10
2015,10,20,15,13,15.10
2015,10,20,15,14,15.20
2015,10,20,15,15,15.20
2015,10,20,15,16,15.20
2015,10,20,15,17,15.20
2015,10,20,15,18,15.20
2015,10,20,15,19,15.20
2015,10,20,15,20,15.20
2015,10,20,15,21,15.20
2015,10,20,15,22,15.20
2015,10,20,15,23,15.20
2015,10,20,15,24,15.20
2015,10,20,15,25,15.10
2015,10,20,15,26,15.10
2015,10,20,15,27,15.10
2015,10,20,15,28,15.10
2015,10,20,15,29,15.10
2015,10,20,15,30,15.10
2015,10,20,15,31,15.20
2015,10,20,15,32,15.20
2015,10,20,15,33,15.20
2015,10,20,15,34,15.20
2015,10,20,15,35,15.20
2015,10,20,15,36,15.20
2015,10,20,15,37,15.20
2015,10,20,15,38,15.20
2015,10,20,15,39,15.10
2015,10,20,15,40,15.10
2015,10,20,15,41,15.10
2015,10,20,15,42,15.10
2015,10,20,15,43,15.10
2015,10,20,15,44,15.00
2015,10,20,15,45,15.00
2015,10,20,15,46,15.00
2015,10,20,15,47,15.00
2015,10,20,15,48,15.00
2015,10,20,15,49,15.00
2015,10,20,15,50,15.00
2015,10,20,15,51,15.00
2015,10,20,15,52,15.00
2015,10,20,15,53,15.10
2015,10,20,15,54,15.10
2015,10,20,15,55,15.10
2015,10,20,15,56,15.10
2015,10,20,15,57,15.20
2015,10,20,15,58,15.20
2015,10,20,15,59,15.10
2015,10,20,16,00,15.10
2015,10,20,16,01,15.10
2015,10,20,16,02,15.20
2015,10,20,16,03,15.20
2015,10,20,16,04,15.20
2015,10,20,16,05,15.30
2015,10,20,16,06,15.30
2015,10,20,16,07,15.30
2015,10,20,16,08,15.40
2015,10,20,16,09,15.40
2015,10,20,16,10,15.40
2015,10,20,16,11,15.40
2015,10,20,16,12,15.40
2015,10,20,16,13,15.40
2015,10,20,16,14,15.40
2015,10,20,16,15,15.40
2015,10,20,16,16,15.40
2015,10,20,16,17,15.50
2015,10,20,16,18,15.50
2015,10,20,16,19,15.60
2015,10,20,16,20,15.60
2015,10,20,16,21,15.70
2015,10,20,16,22,15.70
2015,10,20,16,23,15.70
2015,10,20,16,24,15.70
2015,10,20,16,25,15.70
2015,10,20,16,26,15.70
2015,10,20,16,27,15.70
2015,10,20,16,28,15.60
2015,10,20,16,29,15.60
2015,10,20,16,30,15.60
2015,10,20,16,31,15.50
2015,10,20,16,32,15.50
2015,10,20,16,33,15.50
2015,10,20,16,34,15.50
2015,10,20,16,35,15.50
2015,10,20,16,36,15.40
2015,10,20,16,37,15.40
2015,10,20,16,38,15.40
2015,10,20,16,39,15.50
2015,10,20,16,40,15.50
2015,10,20,16,41,15.40
2015,10,20,16,42,15.40
2015,10,20,16,43,15.40
2015,10,20,16,44,15.40
2015,10,20,16,45,15.40
2015,10,20,16,46,15.40
2015,10,20,16,47,15.40
2015,10,20,16,48,15.30
2015,10,20,16,49,15.30
2015,10,20,16,50,15.30
2015,10,20,16,51,15.30
2015,10,20,16,52,15.30
2015,10,20,16,53,15.30
2015,10,20,16,54,15.20
2015,10,20,16,55,15.20
2015,10,20,16,56,15.20
2015,10,20,16,57,15.20
2015,10,20,16,58,15.20
2015,10,20,16,59,15.20
2015,10,20,17,00,15.20
2015,10,20,17,01,15.20
2015,10,20,17,02,15.20
2015,10,20,17,03,15.20
2015,10,20,17,04,15.20
2015,10,20,17,05,15.20
2015,10,20,17,06,15.20
2015,10,20,17,07,15.20
2015,10,20,17,08,15.20
2015,10,20,17,09,15.20
2015,10,20,17,10,15.10
2015,10,20,17,11,15.10
2015,10,20,17,12,15.10
2015,10,20,17,13,15.10
2015,10,20,17,14,15.10
2015,10,20,17,15,15.00
2015,10,20,17,16,15.00
2015,10,20,17,17,15.00
2015,10,20,17,18,14.90
2015,10,20,17,19,15.00
2015,10,20,17,20,15.00
2015,10,20,17,21,15.10
2015,10,20,17,22,15.10
2015,10,20,17,23,15.10
2015,10,20,17,24,15.10
2015,10,20,17,25,15.10
2015,10,20,17,26,15.10
2015,10,20,17,27,15.10
2015,10,20,17,28,15.10
2015,10,20,17,29,15.10
2015,10,20,17,30,15.00
2015,10,20,17,31,15.00
2015,10,20,17,32,14.90
2015,10,20,17,33,14.90
2015,10,20,17,34,14.80
2015,10,20,17,35,14.80
2015,10,20,17,36,14.80
2015,10,20,17,37,14.70
2015,10,20,17,38,14.70
2015,10,20,17,39,14.70
2015,10,20,17,40,14.60
2015,10,20,17,41,14.60
2015,10,20,17,42,14.60
2015,10,20,17,43,14.60
2015,10,20,17,44,14.50
2015,10,20,17,45,14.50
2015,10,20,17,46,14.50
2015,10,20,17,47,14.50
2015,10,20,17,48,14.40
2015,10,20,17,49,14.40
2015,10,20,17,50,14.40
2015,10,20,17,51,14.40
2015,10,20,17,52,14.30
2015,10,20,17,53,14.30
2015,10,20,17,54,14.30
2015,10,20,17,55,14.30
2015,10,20,17,56,14.30
2015,10,20,17,57,14.20
2015,10,20,17,58,14.20
2015,10,20,17,59,14.20
2015,10,20,18,00,14.10
2015,10,20,18,01,14.10
2015,10,20,18,02,14.10
2015,10,20,18,03,14.10
2015,10,20,18,04,14.00
2015,10,20,18,05,14.00
2015,10,20,18,06,14.00
2015,10,20,18,07,14.00
2015,10,20,18,08,13.90
2015,10,20,18,09,13.90
2015,10,20,18,10,13.90
2015,10,20,18,11,13.90
2015,10,20,18,12,13.80
2015,10,20,18,13,13.80
2015,10,20,18,14,13.80
2015,10,20,18,15,13.80
2015,10,20,18,16,13.80
2015,10,20,18,17,13.70
2015,10,20,18,18,13.70
2015,10,20,18,19,13.70
2015,10,20,18,20,13.60
2015,10,20,18,21,13.60
2015,10,20,18,22,13.60
2015,10,20,18,23,13.50
2015,10,20,18,24,13.50
2015,10,20,18,25,13.40
2015,10,20,18,26,13.40
2015,10,20,18,27,13.40
2015,10,20,18,28,13.30
2015,10,20,18,29,13.30
2015,10,20,18,30,13.30
2015,10,20,18,31,13.30
2015,10,20,18,32,13.20
2015,10,20,18,33,13.20
2015,10,20,18,34,13.20
2015,10,20,18,35,13.10
2015,10,20,18,36,13.10
2015,10,20,18,37,13.10
2015,10,20,18,38,13.10
2015,10,20,18,39,13.00
2015,10,20,18,40,13.00
2015,10,20,18,41,12.90
2015,10,20,18,42,12.90
2015,10,20,18,43,12.80
2015,10,20,18,44,12.80
2015,10,20,18,45,12.70
2015,10,20,18,46,12.70
2015,10,20,18,47,12.60
2015,10,20,18,48,12.60
2015,10,20,18,49,12.60
2015,10,20,18,50,12.50
2015,10,20,18,51,12.50
2015,10,20,18,52,12.40
2015,10,20,18,53,12.40
2015,10,20,18,54,12.40
2015,10,20,18,55,12.30
2015,10,20,18,56,12.30
2015,10,20,18,57,12.30
2015,10,20,18,58,12.20
2015,10,20,18,59,12.20
2015,10,20,19,00,12.20
2015,10,20,19,01,12.10
2015,10,20,19,02,12.10
2015,10,20,19,03,12.10
2015,10,20,19,04,12.10
2015,10,20,19,05,12.10
2015,10,20,19,06,12.00
2015,10,20,19,07,12.00
2015,10,20,19,08,11.90
2015,10,20,19,09,11.90
2015,10,20,19,10,11.90
2015,10,20,19,11,11.90
2015,10,20,19,12,11.90
2015,10,20,19,13,11.90
2015,10,20,19,14,11.80
2015,10,20,19,15,11.80
2015,10,20,19,16,11.80
2015,10,20,19,17,11.80
2015,10,20,19,18,11.80
2015,10,20,19,19,11.70
2015,10,20,19,20,11.70
2015,10,20,19,21,11.70
2015,10,20,19,22,11.70
2015,10,20,19,23,11.60
2015,10,20,19,24,11.60
2015,10,20,19,25,11.60
2015,10,20,19,26,11.60
2015,10,20,19,27,11.50
2015,10,20,19,28,11.50
2015,10,20,19,29,11.40
2015,10,20,19,30,11.40
2015,10,20,19,31,11.40
2015,10,20,19,32,11.40
2015,10,20,19,33,11.30
2015,10,20,19,34,11.30
2015,10,20,19,35,11.30
2015,10,20,19,36,11.30
2015,10,20,19,37,11.20
2015,10,20,19,38,11.20
2015,10,20,19,39,11.20
2015,10,20,19,40,11.20
2015,10,20,19,41,11.20
2015,10,20,19,42,11.10
2015,10,20,19,43,11.10
2015,10,20,19,44,11.10
2015,10,20,19,45,11.10
2015,10,20,19,46,11.10
2015,10,20,19,47,11.00
2015,10,20,19,48,11.00
2015,10,20,19,49,11.00
2015,10,20,19,50,10.90
2015,10,20,19,51,10.90
2015,10,20,19,52,10.90
2015,10,20,19,53,10.90
2015,10,20,19,54,10.90
2015,10,20,19,55,10.90
2015,10,20,19,56,10.80
2015,10,20,19,57,10.80
2015,10,20,19,58,10.80
2015,10,20,19,59,10.80
2015,10,20,20,00,10.80
2015,10,20,20,01,10.80
2015,10,20,20,02,10.70
2015,10,20,20,03,10.70
2015,10,20,20,04,10.70
2015,10,20,20,05,10.70
2015,10,20,20,06,10.70
2015,10,20,20,07,10.70
2015,10,20,20,08,10.70
2015,10,20,20,09,10.60
2015,10,20,20,10,10.60
2015,10,20,20,11,10.60
2015,10,20,20,12,10.60
2015,10,20,20,13,10.60
2015,10,20,20,14,10.50
2015,10,20,20,15,10.50
2015,10,20,20,16,10.50
2015,10,20,20,17,10.50
2015,10,20,20,18,10.40
2015,10,20,20,19,10.40
2015,10,20,20,20,10.40
2015,10,20,20,21,10.40
2015,10,20,20,22,10.30
2015,10,20,20,23,10.30
2015,10,20,20,24,10.30
2015,10,20,20,25,10.30
2015,10,20,20,26,10.20
2015,10,20,20,27,10.20
2015,10,20,20,28,10.20
2015,10,20,20,29,10.20
2015,10,20,20,30,10.20
2015,10,20,20,31,10.20
2015,10,20,20,32,10.10
2015,10,20,20,33,10.10
2015,10,20,20,34,10.10
2015,10,20,20,35,10.10
2015,10,20,20,36,10.10
2015,10,20,20,37,10.10
2015,10,20,20,38,10.10
2015,10,20,20,39,10.00
2015,10,20,20,40,10.00
2015,10,20,20,41,10.00
2015,10,20,20,42,10.00
2015,10,20,20,43,9.90
2015,10,20,20,44,9.90
2015,10,20,20,45,9.90
2015,10,20,20,46,9.90
2015,10,20,20,47,9.90
2015,10,20,20,48,9.90
2015,10,20,20,49,9.80
2015,10,20,20,50,9.80
2015,10,20,20,51,9.80
2015,10,20,20,52,9.80
2015,10,20,20,53,9.70
2015,10,20,20,54,9.70
2015,10,20,20,55,9.70
2015,10,20,20,56,9.70
2015,10,20,20,57,9.60
2015,10,20,20,58,9.60
2015,10,20,20,59,9.60
2015,10,20,21,00,9.60
2015,10,20,21,01,9.60
2015,10,20,21,02,9.50
2015,10,20,21,03,9.50
2015,10,20,21,04,9.50
2015,10,20,21,05,9.50
2015,10,20,21,06,9.50
2015,10,20,21,07,9.40
2015,10,20,21,08,9.40
2015,10,20,21,09,9.40
2015,10,20,21,10,9.40
2015,10,20,21,11,9.40
2015,10,20,21,12,9.50
2015,10,20,21,13,9.50
2015,10,20,21,14,9.50
2015,10,20,21,15,9.50
2015,10,20,21,16,9.50
2015,10,20,21,17,9.50
2015,10,20,21,18,9.40
2015,10,20,21,19,9.40
2015,10,20,21,20,9.40
2015,10,20,21,21,9.40
2015,10,20,21,22,9.40
2015,10,20,21,23,9.40
2015,10,20,21,24,9.40
2015,10,20,21,25,9.30
2015,10,20,21,26,9.30
2015,10,20,21,27,9.30
2015,10,20,21,28,9.30
2015,10,20,21,29,9.30
2015,10,20,21,30,9.30
2015,10,20,21,31,9.30
2015,10,20,21,32,9.30
2015,10,20,21,33,9.30
2015,10,20,21,34,9.30
2015,10,20,21,35,9.30
2015,10,20,21,36,9.30
2015,10,20,21,37,9.30
2015,10,20,21,38,9.30
2015,10,20,21,39,9.30
2015,10,20,21,40,9.20
2015,10,20,21,41,9.20
2015,10,20,21,42,9.20
2015,10,20,21,43,9.20
2015,10,20,21,44,9.20
2015,10,20,21,45,9.20
2015,10,20,21,46,9.10
2015,10,20,21,47,9.10
2015,10,20,21,48,9.10
2015,10,20,21,49,9.10
2015,10,20,21,50,9.10
2015,10,20,21,51,9.10
2015,10,20,21,52,9.00
2015,10,20,21,53,9.00
2015,10,20,21,54,9.00
2015,10,20,21,55,9.00
2015,10,20,21,56,8.90
2015,10,20,21,57,8.90
2015,10,20,21,58,8.90
2015,10,20,21,59,8.90
2015,10,20,22,00,8.90
2015,10,20,22,01,8.80
2015,10,20,22,02,8.80
2015,10,20,22,03,8.80
2015,10,20,22,04,8.80
2015,10,20,22,05,8.70
2015,10,20,22,06,8.70
2015,10,20,22,07,8.70
2015,10,20,22,08,8.70
2015,10,20,22,09,8.60
2015,10,20,22,10,8.60
2015,10,20,22,11,8.60
2015,10,20,22,12,8.60
2015,10,20,22,13,8.60
2015,10,20,22,14,8.60
2015,10,20,22,15,8.60
2015,10,20,22,16,8.60
2015,10,20,22,17,8.60
2015,10,20,22,18,8.50
2015,10,20,22,19,8.50
2015,10,20,22,20,8.50
2015,10,20,22,21,8.50
2015,10,20,22,22,8.50
2015,10,20,22,23,8.50
2015,10,20,22,24,8.50
2015,10,20,22,25,8.50
2015,10,20,22,26,8.40
2015,10,20,22,27,8.40
2015,10,20,22,28,8.40
2015,10,20,22,29,8.40
2015,10,20,22,30,8.40
2015,10,20,22,31,8.40
2015,10,20,22,32,8.30
2015,10,20,22,33,8.30
2015,10,20,22,34,8.30
2015,10,20,22,35,8.30
2015,10,20,22,36,8.30
2015,10,20,22,37,8.30
2015,10,20,22,38,8.30
2015,10,20,22,39,8.20
2015,10,20,22,40,8.20
2015,10,20,22,41,8.20
2015,10,20,22,42,8.20
2015,10,20,22,43,8.20
2015,10,20,22,44,8.20
2015,10,20,22,45,8.20
2015,10,20,22,46,8.20
2015,10,20,22,47,8.20
2015,10,20,22,48,8.30
2015,10,20,22,49,8.30
2015,10,20,22,50,8.30
2015,10,20,22,51,8.30
2015,10,20,22,52,8.30
2015,10,20,22,53,8.30
2015,10,20,22,54,8.30
2015,10,20,22,55,8.40
2015,10,20,22,56,8.40
2015,10,20,22,57,8.40
2015,10,20,22,58,8.40
2015,10,20,22,59,8.40
2015,10,20,23,00,8.40
2015,10,20,23,01,8.40
2015,10,20,23,02,8.40
2015,10,20,23,03,8.40
2015,10,20,23,04,8.40
2015,10,20,23,05,8.40
2015,10,20,23,06,8.40
2015,10,20,23,07,8.40
2015,10,20,23,08,8.40
2015,10,20,23,09,8.40
2015,10,20,23,10,8.40
2015,10,20,23,11,8.40
2015,10,20,23,12,8.40
2015,10,20,23,13,8.30
2015,10,20,23,14,8.30
2015,10,20,23,15,8.30
2015,10,20,23,16,8.20
2015,10,20,23,17,8.20
2015,10,20,23,18,8.20
2015,10,20,23,19,8.20
2015,10,20,23,20,8.10
2015,10,20,23,21,8.10
2015,10,20,23,22,8.10
2015,10,20,23,23,8.10
2015,10,20,23,24,8.00
2015,10,20,23,25,8.00
2015,10,20,23,26,8.00
2015,10,20,23,27,8.00
2015,10,20,23,28,7.90
2015,10,20,23,29,7.90
2015,10,20,23,30,7.90
2015,10,20,23,31,7.90
2015,10,20,23,32,7.90
2015,10,20,23,33,7.90
2015,10,20,23,34,7.90
2015,10,20,23,35,7.90
2015,10,20,23,36,7.90
2015,10,20,23,37,7.90
2015,10,20,23,38,7.90
2015,10,20,23,39,7.90
2015,10,20,23,40,7.90
2015,10,20,23,41,7.90
2015,10,20,23,42,7.90
2015,10,20,23,43,7.90
2015,10,20,23,44,7.90
2015,10,20,23,45,7.90
2015,10,20,23,46,7.90
2015,10,20,23,47,7.90
2015,10,20,23,48,7.90
2015,10,20,23,49,7.90
2015,10,20,23,50,7.90
2015,10,20,23,51,7.90
2015,10,20,23,52,7.90
2015,10,20,23,53,7.90
2015,10,20,23,54,7.90
2015,10,20,23,55,7.90
2015,10,20,23,56,7.90
2015,10,20,23,57,7.90
2015,10,20,23,58,7.90
2015,10,20,23,59,7.90
